Flag for Canada Weather past 2 weeks in Moncton, New Brunswick, Canada

Now
32 °F

Light snow. Mostly cloudy.


Feels Like: 25 °F
Forecast: 35 / 41 °F
Wind: 8 mph from Northwest

Location: Moncton

Current Time: Apr 27, 2015 at 7:05:47 AM

Latest Report: Apr 27, 2015 at 6:00 AM


Visibility: 8 mi

Pressure: 29.43 "Hg

Humidity: 93%

Dew point: 30 °F

Location of MonctonLocation

Historic Weather in Moncton — Graph

°F

Moncton temperature yesterday

Maximum temperature yesterday: 45 °F (at 12:00 PM)
Minimum temperature yesterday: 25 °F (at 5:00 AM)
Average temperature yesterday: 34 °F

Past Weeks' High & Low Weather Summary

 TemperatureHumidityPressure
High61 °F (Apr 13, 3:00 PM)100% (Apr 22, 4:00 AM)30.38 "Hg (Apr 22, 4:00 AM)
Low23 °F (Apr 16, 4:00 AM)27% (Apr 16, 5:00 PM)29.43 "Hg (Apr 27, 6:00 AM)
Average39 °F74%29.90 "Hg
* Reported Apr 12 6:00 AM — Apr 27 6:00 AM, Moncton, Weather by CustomWeather, © 2015

Note: Actual official high and low records may vary slightly from our data, if they occured in-between our weather recording intervals... More about our weather records

Advertising

Moncton weather history for previous 24 hours

 ConditionsComfort  
Time TempWeatherWind HumidityBarometerVisibility
6:00 AM
Mon, Apr 27
32 °FLight snow. Mostly cloudy.8 mph93%29.43 "Hg8 mi
5:00 AM32 °FLight snow. Ice fog.7 mph93%29.45 "Hg3 mi
4:00 AM32 °FLight snow. Ice fog.6 mph100%29.46 "Hg2 mi
3:00 AM34 °FLight rain. Mostly cloudy.7 mph93%29.48 "Hg10 mi
2:00 AM34 °FDrizzle. Fog.8 mph100%29.49 "Hg10 mi
1:00 AM34 °FDrizzle. Fog.8 mph100%29.52 "Hg2 mi
12:00 AM34 °FDrizzle. Fog.7 mph93%29.54 "Hg3 mi
11:52 PM
Sun, Apr 26
34 °FDrizzle. Fog.7 mph93%29.54 "Hg3 mi
11:00 PM34 °FMostly cloudy.5 mph93%29.55 "Hg15 mi
10:00 PM34 °FMostly cloudy.6 mph93%29.57 "Hg15 mi
9:00 PM34 °FDrizzle. Low clouds.7 mph93%29.59 "Hg12 mi
8:00 PM34 °FLight rain. Mostly cloudy.9 mph93%29.59 "Hg12 mi
7:00 PM36 °FLight rain. Mostly cloudy.14 mph87%29.59 "Hg12 mi
6:00 PM36 °FLight rain. Low clouds.13 mph93%29.59 "Hg15 mi
5:00 PM37 °FLight rain. Mostly cloudy.10 mph87%29.59 "Hg15 mi
4:00 PM39 °FLight rain. Low clouds.10 mph87%29.60 "Hg12 mi
3:00 PM43 °FMore clouds than sun.13 mph76%29.59 "Hg15 mi
2:00 PM43 °FMostly cloudy.14 mph71%29.59 "Hg15 mi
1:00 PM45 °FPartly sunny.12 mph66%29.59 "Hg15 mi
12:00 PM45 °FBroken clouds.No wind76%29.59 "Hg15 mi
11:00 AM43 °FPartly sunny.2 mph76%29.60 "Hg15 mi
10:00 AM39 °FScattered clouds.5 mph100%29.60 "Hg15 mi
9:00 AM34 °FPassing clouds.3 mph93%29.61 "Hg15 mi
8:00 AM30 °FPassing clouds.5 mph93%29.61 "Hg15 mi
7:00 AM27 °FIce fog.6 mph93%29.60 "Hg1 mi
Weather by CustomWeather, © 2015

See weather overviewHow to use our weather pages